User: anonymous   Login
Location: Nantong Television Tower
(32.0188°N, 120.8512°E)
Time: 12:01:45
(UTC+08:00)
Language:

ATLAS 3B CENTAUR R/B - Orbit

View from above orbital plane
View from above orbital plane
View from above satellite
View from above satellite

Ground track
Ground track

The orbit data is extracted from the following two-line orbital elements,

1 28118U 03057B   14329.07715094  .00086917  00000-0  18970-2 0  8961
2 28118 028.1525 164.3028 3775552 268.6119 315.1467 07.94033421208196
Epoch (UTC): 25 November 2014 01:51:05
Eccentricity: 0.3775552
inclination: 28.1525°
perigee height: 228 km
apogee height: 8242 km
right ascension of ascending node: 164.3028°
argument of perigee: 268.6119°
revolutions per day: 7.94033421
mean anomaly at epoch: 315.1467°
orbit number at epoch: 20819

The dashed part of the orbit path shows where the satellite is in the earth's shadow,  

DLR